Time,TemperatureF,DewpointF,PressureIn,WindDirection,WindDirectionDegrees,WindSpeedMPH,WindSpeedGustMPH,Humidity,HourlyPrecipIn,Conditions,Clouds,dailyrainin,SoftwareType,DateUTC
2013-10-29 00:01:00,46.8,46.8,26.97,SE,137,0.0,0.0,100,0.00,,,-99.99,VWS V12.07,2013-10-29 04:01:00,
2013-10-29 00:31:00,46.8,46.8,26.97,SE,137,0.0,0.0,100,0.00,,,-99.99,VWS V12.07,2013-10-29 04:31:00,
2013-10-29 01:01:00,46.4,46.4,26.97,SE,137,0.0,0.0,100,0.00,,,-99.99,VWS V12.07,2013-10-29 05:01:00,
2013-10-29 01:31:00,47.4,47.4,26.96,SE,137,0.0,0.0,100,0.00,,,-99.99,VWS V12.07,2013-10-29 05:31:00,
2013-10-29 02:01:00,47.3,47.3,26.96,SE,137,0.0,0.0,100,0.00,,,-99.99,VWS V12.07,2013-10-29 06:01:00,
2013-10-29 02:31:00,48.3,48.3,26.97,SE,137,0.0,0.0,100,0.00,,,-99.99,VWS V12.07,2013-10-29 06:31:00,
2013-10-29 03:01:00,47.8,47.8,26.97,SE,137,0.0,0.0,100,0.00,,,-99.99,VWS V12.07,2013-10-29 07:01:00,
2013-10-29 03:31:00,48.6,48.6,26.97,SE,137,0.0,0.0,100,0.00,,,-99.99,VWS V12.07,2013-10-29 07:31:00,
2013-10-29 04:01:00,49.3,49.3,26.97,SE,137,0.0,0.0,100,0.00,,,-99.99,VWS V12.07,2013-10-29 08:01:00,
2013-10-29 04:31:00,49.1,49.1,26.99,SE,137,0.0,0.0,100,0.00,,,-99.99,VWS V12.07,2013-10-29 08:31:00,
2013-10-29 05:01:00,48.6,48.6,26.99,SE,137,0.0,0.0,100,0.00,,,-99.99,VWS V12.07,2013-10-29 09:01:00,
2013-10-29 05:31:00,47.7,47.7,27.00,SE,137,0.0,0.0,100,0.00,,,-99.99,VWS V12.07,2013-10-29 09:31:00,
2013-10-29 06:01:00,48.2,48.2,27.00,SE,137,0.0,0.0,100,0.00,,,-99.99,VWS V12.07,2013-10-29 10:01:00,
2013-10-29 06:31:00,48.7,48.7,27.01,SE,137,0.0,0.0,100,0.01,,,-99.99,VWS V12.07,2013-10-29 10:31:00,
2013-10-29 07:02:00,48.5,48.5,27.00,SE,137,0.0,0.0,100,0.01,,,-99.99,VWS V12.07,2013-10-29 11:02:00,
2013-10-29 07:31:00,48.6,48.6,27.01,SE,137,0.0,0.0,100,0.00,,,-99.99,VWS V12.07,2013-10-29 11:31:00,
2013-10-29 08:01:00,50.6,50.6,27.02,SE,138,0.0,0.0,100,0.00,,,-99.99,VWS V12.07,2013-10-29 12:01:00,
2013-10-29 08:31:00,51.5,51.5,27.03,SE,138,0.0,0.0,100,0.00,,,-99.99,VWS V12.07,2013-10-29 12:31:00,
2013-10-29 09:01:00,52.8,52.8,27.03,SE,139,0.0,0.0,100,0.00,,,-99.99,VWS V12.07,2013-10-29 13:01:00,
2013-10-29 09:31:00,54.7,53.3,27.03,SE,143,0.0,0.0,95,0.00,,,-99.99,VWS V12.07,2013-10-29 13:31:00,
2013-10-29 10:01:00,55.8,52.9,27.02,SE,143,0.0,0.0,90,0.00,,,-99.99,VWS V12.07,2013-10-29 14:01:00,
2013-10-29 10:31:00,56.4,52.3,27.03,SE,142,0.0,0.0,86,0.00,,,-99.99,VWS V12.07,2013-10-29 14:31:00,
2013-10-29 11:01:00,57.0,51.6,27.03,SE,142,0.0,0.0,82,0.00,,,-99.99,VWS V12.07,2013-10-29 15:01:00,
2013-10-29 11:31:00,57.2,52.4,27.02,East,83,0.0,0.0,84,0.00,,,-99.99,VWS V12.07,2013-10-29 15:31:00,
2013-10-29 12:01:00,57.3,52.8,27.02,East,82,0.0,0.0,85,0.00,,,-99.99,VWS V12.07,2013-10-29 16:01:00,
2013-10-29 12:31:00,57.1,52.6,27.01,South,180,0.0,0.0,85,0.00,,,-99.99,VWS V12.07,2013-10-29 16:31:00,
2013-10-29 13:01:00,57.9,53.1,27.00,NE,38,0.0,0.0,84,0.00,,,-99.99,VWS V12.07,2013-10-29 17:01:00,
2013-10-29 13:31:00,58.5,52.7,26.99,NE,50,0.0,0.0,81,0.00,,,-99.99,VWS V12.07,2013-10-29 17:31:00,
2013-10-29 14:01:00,58.5,52.4,26.98,NE,37,0.0,0.0,80,0.00,,,-99.99,VWS V12.07,2013-10-29 18:01:00,
2013-10-29 14:31:00,58.9,52.8,26.97,East,83,0.0,0.0,80,0.00,,,-99.99,VWS V12.07,2013-10-29 18:31:00,
2013-10-29 15:01:00,58.9,52.4,26.98,NE,35,0.0,0.0,79,0.00,,,-99.99,VWS V12.07,2013-10-29 19:01:00,
2013-10-29 15:31:00,59.4,52.5,26.97,ESE,121,0.0,0.0,78,0.00,,,-99.99,VWS V12.07,2013-10-29 19:31:00,
2013-10-29 16:01:00,59.1,51.9,26.97,ESE,118,0.0,0.0,77,0.00,,,-99.99,VWS V12.07,2013-10-29 20:01:00,
2013-10-29 16:31:00,59.4,52.2,26.98,SE,124,0.0,0.0,77,0.00,,,-99.99,VWS V12.07,2013-10-29 20:31:00,
2013-10-29 17:01:00,58.5,51.7,26.97,East,98,0.0,0.0,78,0.00,,,-99.99,VWS V12.07,2013-10-29 21:01:00,
2013-10-29 17:31:00,57.1,51.7,26.99,East,79,0.0,0.0,82,0.00,,,-99.99,VWS V12.07,2013-10-29 21:31:00,
2013-10-29 18:01:00,55.5,51.1,27.00,East,79,0.0,0.0,85,0.00,,,-99.99,VWS V12.07,2013-10-29 22:01:00,
2013-10-29 18:31:00,55.0,50.9,27.00,East,79,0.0,0.0,86,0.00,,,-99.99,VWS V12.07,2013-10-29 22:31:00,
2013-10-29 19:01:00,54.2,51.0,27.01,East,79,0.0,0.0,89,0.00,,,-99.99,VWS V12.07,2013-10-29 23:01:00,
2013-10-29 19:31:00,54.1,51.2,27.00,East,79,0.0,0.0,90,0.00,,,-99.99,VWS V12.07,2013-10-29 23:31:00,
2013-10-29 20:01:00,54.6,51.7,26.99,ESE,107,0.0,0.0,90,0.00,,,-99.99,VWS V12.07,2013-10-30 00:01:00,
2013-10-29 20:31:00,54.3,51.4,26.99,ESE,116,0.0,0.0,90,0.00,,,-99.99,VWS V12.07,2013-10-30 00:31:00,
2013-10-29 21:01:00,53.2,51.2,27.00,ESE,114,0.0,0.0,93,0.00,,,-99.99,VWS V12.07,2013-10-30 01:01:00,
2013-10-29 21:31:00,53.6,51.6,27.00,SE,145,0.0,0.0,93,0.00,,,-99.99,VWS V12.07,2013-10-30 01:31:00,
2013-10-29 22:01:00,54.4,51.8,27.00,SE,132,0.0,0.0,91,0.00,,,-99.99,VWS V12.07,2013-10-30 02:01:00,
2013-10-29 22:31:00,53.6,51.6,27.00,SE,129,0.0,0.0,93,0.00,,,-99.99,VWS V12.07,2013-10-30 02:31:00,
2013-10-29 23:01:00,54.0,51.7,26.99,SE,129,0.0,0.0,92,0.00,,,-99.99,VWS V12.07,2013-10-30 03:01:00,
2013-10-29 23:31:00,53.4,51.4,26.99,SE,129,0.0,0.0,93,0.00,,,-99.99,VWS V12.07,2013-10-30 03:31:00,